VIR104L KATL-EGLL

Flight info

Callsign VIR104L
Flight time N/A
Altitude 37000
Route PHIIL3 HRTWL Q64 TYI DCT ORF AR9 ZIBUT DCT LARGE DCT JENYY DCT DOVEY/M085F370 DCT 42N060W 44N050W 47N040W 49N030W 50N020W DCT SOMAX DCT ATSUR/N0488F370 DCT EVRIN DCT JETZI DCT AMFUL/N0463F230 P2 SIRIC
Aircraft A35K/H-SDE2E3GHIJ3J4J5LM1ORWXY/LB1D1

Departure

Time N/A
Airport Hartsfield Jackson Atlanta International Airport (KATL)

Arrival

Time 2026-05-04 17:14
Airport London Heathrow Airport (EGLL)
Time Latitude Longitude Altitude Speed Heading
2026-05-04 16:12 51.37064 -8.52551 37063 ft 477 kts 70°
2026-05-04 16:12 51.40365 -8.37504 37058 ft 478 kts 70°
2026-05-04 16:13 51.44730 -8.17432 37064 ft 478 kts 70°
2026-05-04 16:14 51.49085 -7.97214 37055 ft 480 kts 70°
2026-05-04 16:16 51.54494 -7.71816 37057 ft 480 kts 70°
2026-05-04 16:17 51.59858 -7.46312 37049 ft 481 kts 71°
2026-05-04 16:18 51.64081 -7.26005 37047 ft 481 kts 71°
2026-05-04 16:19 51.69358 -7.00334 37045 ft 484 kts 71°
2026-05-04 16:20 51.74138 -6.76793 37046 ft 484 kts 71°
2026-05-04 16:22 51.77641 -6.50365 37044 ft 487 kts 93°
2026-05-04 16:23 51.74729 -6.17895 37040 ft 488 kts 98°
2026-05-04 16:25 51.71629 -5.85384 37031 ft 489 kts 98°
2026-05-04 16:26 51.67905 -5.47382 37014 ft 493 kts 99°
2026-05-04 16:28 51.65146 -5.20046 37010 ft 495 kts 99°
2026-05-04 16:29 51.61181 -4.81874 36990 ft 495 kts 99°
2026-05-04 16:31 51.58261 -4.54534 37009 ft 496 kts 99°
2026-05-04 16:32 51.54670 -4.21748 37003 ft 497 kts 100°
2026-05-04 16:33 51.52228 -3.99949 36996 ft 497 kts 100°
2026-05-04 16:34 51.50369 -3.83584 36993 ft 497 kts 101°
2026-05-04 16:35 51.48495 -3.67320 36657 ft 486 kts 101°
2026-05-04 16:35 51.47248 -3.51270 35894 ft 481 kts 96°
2026-05-04 16:36 51.46936 -3.45935 35639 ft 481 kts 96°
2026-05-04 16:36 51.46324 -3.35269 35198 ft 480 kts 96°
2026-05-04 16:37 51.45701 -3.24672 34718 ft 480 kts 96°
2026-05-04 16:37 51.45381 -3.19343 34481 ft 480 kts 96°
2026-05-04 16:37 51.44729 -3.08686 33888 ft 479 kts 96°
2026-05-04 16:38 51.44077 -2.98174 32347 ft 472 kts 97°
2026-05-04 16:39 51.43092 -2.82550 29901 ft 469 kts 98°
2026-05-04 16:39 51.42426 -2.72202 28328 ft 461 kts 98°
2026-05-04 16:40 51.41762 -2.62054 27177 ft 455 kts 98°
2026-05-04 16:40 51.41096 -2.52010 26006 ft 450 kts 99°
2026-05-04 16:41 51.40434 -2.42123 24878 ft 444 kts 99°
2026-05-04 16:41 51.39438 -2.27512 23105 ft 435 kts 99°
2026-05-04 16:42 51.38453 -2.13340 21364 ft 421 kts 99°
2026-05-04 16:43 51.37862 -2.04951 20341 ft 415 kts 98°
2026-05-04 16:43 51.37270 -1.96639 19312 ft 408 kts 98°
2026-05-04 16:43 51.36961 -1.92333 18782 ft 404 kts 98°
2026-05-04 16:44 51.35684 -1.74757 16428 ft 392 kts 98°
2026-05-04 16:45 51.35051 -1.66178 15281 ft 386 kts 98°
2026-05-04 16:46 51.34082 -1.53245 13857 ft 400 kts 97°
2026-05-04 16:46 51.33420 -1.44455 13211 ft 398 kts 97°
2026-05-04 16:47 51.32760 -1.35789 12665 ft 393 kts 98°
2026-05-04 16:47 51.32203 -1.28563 12197 ft 388 kts 98°
2026-05-04 16:48 51.31270 -1.14648 11421 ft 362 kts 92°
2026-05-04 16:48 51.31230 -1.10730 11182 ft 345 kts 92°
2026-05-04 16:49 51.31190 -1.04532 10787 ft 321 kts 92°
2026-05-04 16:49 51.31138 -0.97693 10344 ft 295 kts 92°
2026-05-04 16:50 51.31073 -0.91289 9953 ft 289 kts 92°
2026-05-04 16:50 51.31006 -0.84863 9505 ft 287 kts 92°
2026-05-04 16:51 51.30934 -0.78552 9102 ft 286 kts 92°
2026-05-04 16:51 51.30898 -0.75378 8919 ft 285 kts 91°
2026-05-04 16:51 51.30824 -0.69086 8513 ft 283 kts 91°
2026-05-04 16:52 51.30747 -0.62818 8116 ft 281 kts 91°
2026-05-04 16:52 51.30707 -0.59704 7894 ft 281 kts 91°
2026-05-04 16:53 51.30626 -0.53495 7533 ft 274 kts 91°
2026-05-04 16:53 51.30555 -0.44943 7015 ft 242 kts 84°
2026-05-04 16:54 51.30856 -0.42481 6977 ft 242 kts 76°
2026-05-04 16:55 51.32647 -0.32096 6967 ft 243 kts 74°
2026-05-04 16:55 51.33532 -0.26877 6989 ft 244 kts 75°
2026-05-04 16:56 51.34393 -0.21594 6532 ft 245 kts 76°
2026-05-04 16:56 51.35698 -0.13775 5679 ft 241 kts 69°
2026-05-04 16:57 51.36698 -0.11676 5221 ft 241 kts 34°
2026-05-04 16:57 51.39785 -0.11863 4504 ft 235 kts 320°
2026-05-04 16:58 51.42289 -0.18400 3410 ft 230 kts 326°
2026-05-04 16:58 51.43683 -0.19568 3054 ft 227 kts 339°
2026-05-04 16:59 51.46589 -0.21395 2528 ft 221 kts 338°
2026-05-04 17:00 51.47678 -0.28881 2056 ft 182 kts 253°
2026-05-04 17:00 51.46441 -0.34176 1265 ft 158 kts 265°
2026-05-04 17:01 51.46449 -0.37464 913 ft 154 kts 276°
2026-05-04 17:01 51.46475 -0.41893 1363 ft 235 kts 271°
2026-05-04 17:02 51.46275 -0.47003 2364 ft 260 kts 267°
2026-05-04 17:02 51.45871 -0.52907 2493 ft 268 kts 257°
2026-05-04 17:03 51.45017 -0.55545 2496 ft 269 kts 230°
2026-05-04 17:03 51.43522 -0.57303 2491 ft 268 kts 203°
2026-05-04 17:03 51.39883 -0.58150 2486 ft 265 kts 170°
2026-05-04 17:04 51.37096 -0.54978 2492 ft 257 kts 112°
2026-05-04 17:04 51.36319 -0.49488 2492 ft 254 kts 97°
2026-05-04 17:05 51.35700 -0.43884 2493 ft 254 kts 98°
2026-05-04 17:05 51.35336 -0.38329 2489 ft 252 kts 82°
2026-05-04 17:06 51.36181 -0.32936 2489 ft 250 kts 72°
2026-05-04 17:06 51.36701 -0.30274 2492 ft 250 kts 71°
2026-05-04 17:07 51.37758 -0.25039 2479 ft 234 kts 71°
2026-05-04 17:07 51.38075 -0.23444 2478 ft 221 kts 71°
2026-05-04 17:07 51.38665 -0.20462 2490 ft 200 kts 71°
2026-05-04 17:07 51.39074 -0.18395 2517 ft 197 kts 70°
2026-05-04 17:08 51.39615 -0.16383 2485 ft 198 kts 58°
2026-05-04 17:08 51.41892 -0.14234 2491 ft 200 kts
2026-05-04 17:08 51.43236 -0.14274 2479 ft 184 kts 358°
2026-05-04 17:09 51.44483 -0.14390 2485 ft 177 kts 359°
2026-05-04 17:09 51.45697 -0.14695 2477 ft 180 kts 340°
2026-05-04 17:09 51.46541 -0.16163 2489 ft 187 kts 295°
2026-05-04 17:10 51.46556 -0.20300 2482 ft 176 kts 266°
2026-05-04 17:10 51.46551 -0.25247 2381 ft 143 kts 273°
2026-05-04 17:11 51.46547 -0.26706 2192 ft 143 kts 273°
2026-05-04 17:11 51.46541 -0.28291 1999 ft 142 kts 272°
2026-05-04 17:11 51.46531 -0.31452 1614 ft 141 kts 272°
2026-05-04 17:12 51.46525 -0.33034 1424 ft 141 kts 273°
2026-05-04 17:12 51.46514 -0.36170 1032 ft 141 kts 274°
2026-05-04 17:13 51.46495 -0.40890 436 ft 137 kts 273°
2026-05-04 17:14 51.46486 -0.45285 98 ft 101 kts 272°
2026-05-04 17:14 51.46491 -0.45976 94 ft 43 kts 270°
2026-05-04 17:14 51.46572 -0.46816 97 ft 21 kts 313°
2026-05-04 17:15 51.46659 -0.46851 94 ft 10 kts 355°
2026-05-04 17:15 51.46756 -0.46859 95 ft 8 kts 359°
2026-05-04 17:16 51.46963 -0.46863 95 ft 17 kts 359°
2026-05-04 17:16 51.47236 -0.46704 96 ft 17 kts 86°
2026-05-04 17:17 51.47240 -0.46498 92 ft 16 kts 92°
2026-05-04 17:17 51.46992 -0.46279 97 ft 8 kts 231°
2026-05-04 17:18 51.46985 -0.46294 97 ft 0 kts 232°